Showing default

FLOCK 4G 36, 62675

Orbit data source: Space-Track

FLOCK 4G 36, 62675 is a payload satellite owned by Planet (US) in SSO that was launched on Tue, 14 Jan 2025 UTC via an FALCON 9 launch vehicle from the Air Force Western Test Range (AFWTR). Payload-class satellites include a variety of spacecraft equipped with specific instruments for various scientific and technological missions. These include communications satellites like Starlink; space stations such as the ISS; scientific satellites like the Hubble; Earth observation satellites from companies like Planet Labs, Umbra, and HawkEye 360; GPS; miniature CubeSats for education and research; and military/defense satellites.

Loading next visibility...
Identifier
62675, 2025-009BU
Orbit
SSO
Country
Flag of USUS
Related business
Manufacturer
Planet
Mission
Operational Commercial Imaging
Bus & Motor
CUBESAT 3U, Unknown motor
Mass
5.7 kg wet, 5.7 kg dry
Launch date (UTC)
2025-01-14 (9 months ago)
Launch vehicle
FALCON 9
Launch site
Air Force Western Test Range (AFWTR)
Object type
Payload
Rocket body
Debris
Shape & HBR
Box + 2 Pan, 1.0 m
Radar Cross Section
0.072 m², Medium (>0.1 m² and < 1m²)

Expand to show TLE details & history
Last TLE update: 15 hours ago

TLE from 15 hours ago
0 FLOCK 4G 36
1 62675U 25009BU  25286.47488146  .00018664  00000-0  79789-3 0  9995
2 62675  97.4239   5.1769 0006636 111.4183 248.7762 15.22874287 41265
Epoch: 2025-10-13T11:23Z
TLE epoch observation values (Epoch: 2025-10-13T11:23:49.758Z)
Latitude
-0.00001°
Longitude
171.94244°
Altitude
501.924 km
Speed
7.612 km/s
True Right ascension
00h 20m 42s
True Declination
0° 00' 00"
Sunlit
Object was in full shadow at epoch
Visualization orbit readout
Latitude
Unknown
Longitude
Unknown
Altitude
Unknown
Speed
Unknown
Apparent Right ascension
Unknown
Apparent Declination
Unknown
Sunlit
N/A
Visualization observer readout
Local Sidereal Time
21:21:02
Azimuth
Unknown
Elevation
Unknown
Doppler factor
Unknown
Orbital elements
Apogee altitude
498.699 km
Perigee altitude
489.578 km
Semi-major axis
6,872.276 km
Eccentricity
0.00066
Inclination
97.4239°
RAAN
5.1769°
Arg. of periapsis
111.4183°
True anomaly
248.70534°
Mean anomaly
248.7762°
Eccentric anomaly
248.74077°
Mean motion
3.80971 °/min
Orbital period
94.5 mins
BSTAR
0.00079789
Loading maneuver chart data...
Computing Atmospheric mass density...
Loading historical data...
Loading historical data...
Loading historical data...
Loading historical data...
Loading historical data...
Loading historical data...
Loading historical data...

Documentation

Showing up to 5 results
|